SCP
0 0 0 0 0 0 0 0 0 0 0 0 0 0 0 0 0 0 0 0 0 0 0 0 0 0 0 0 0 0 0 0 0 0 0 0 0 0 0 0 0 0 0 0 0 0 0 0 0 0 0 0 0 0
0 0 0 0 0 0 0 0 0 0 0 0 0 0 0 0 0 0 0 0 0 0 0 0 0 0 0 0 0 0 0 0 0 0 0 0 0 0 0 0 0 0 0 0 0 0 0 0 0 0 0 0 0 0
0 0 0 0 0 0 0 0 0 0 0 0 0 0 0 0 0 0 0 0 0 0 0 0 0 0 0 0 0 0 0 0 0 0 0 0 0 0 0 0 0 0 0 0 0 0 0 0 0 0 0 0 0 0
0 0 0 0 0 0 0 0 0 0 0 0 0 0 0 0 0 0 0 0 0 0 0 0 0 0 0 0 0 0 0 0 0 0 0 0 0 0 0 0 0 0 0 0 0 0 0 0 0 0 0 0 0 0
0 0 0 0 0 0 0 0 0 0 0 0 0 0 0 0 0 0 0 0 0 0 0 0 0 0 0 0 0 0 0 0 0 0 0 0 0 0 0 0 0 0 0 0 0 0 0 0 0 0 0 0 0 0
0 0 0 0 0 0 0 0 0 0 0 0 0 0 0 0 0 0 0 0 0 0 0 0 0 0 0 0 0 0 0 0 0 0 0 0 0 0 0 0 0 0 0 0 0 0 0 0 0 0 0 0 -0 -0
0 0 0 0 0 0 0 0 0 0 0 0 0 0 0 0 0 0 0 0 0 0 0 0 0 0 0 0 0 0 0 0 0 0 0 0 0 0 0 0 0 0 0 0 0 0 0 0 0 0 0 0 -0 -0
-0 -0 0 0 0 0 0 0 0 0 0 0 0 0 0 0 0 0 0 0 0 0 0 0 0 0 0 0 0 0 0 0 0 0 0 0 0 0 0 0 0 0 0 0 0 0 0 0 0 0 0 -0 -0 -0
0 -0 0 0 0 0 0 0 0 0 0 0 0 0 0 0 0 0 0 0 0 0 0 0 0 0 0 0 0 0 0 0 0 0 0 0 0 0 0 0 0 0 0 0 0 0 0 0 0 -0 -0 -0 -0 0
0 0 0 0 0 0 0 0 0 0 0 0 0 0 0 0 0 0 0 0 0 0 0 0 0 0 0 0 0 0 0 0 0 0 0 0 0 0 0 0 0 0 0 -0 0 0 0 0 -0 -0 -0 -0 0 0
0 0 0 0 -0 -0 0 0 0 0 0 0 0 0 0 0 0 0 0 0 0 0 0 0 0 0 0 0 0 0 0 0 0 0 0 0 0 0 0 0 0 0 0 0 0 0 0 0 -0 -0 -0 0 0 0
0 0 -0 -0 -0 -0 -0 -0 0 0 0 0 0 0 0 0 0 0 0 0 0 0 0 0 0 0 0 0 0 0 0 0 0 0 0 0 0 0 0 0 0 0 -0 0 0 0 0 0 -0 -0 -0 0 0 0
0 0 0 0 0 -0 -0 0 0 0 0 -0 0 0 0 0 0 0 0 0 0 0 0 0 0 0 0 0 0 0 0 0 0 0 0 0 0 0 0 0 0 0 0 0 0 0 0 -0 -0 -0 0 0 0 0
0 0 0 0 0 0 0 0 0 0 -0 0 0 0 0 0 0 0 0 0 0 0 0 0 0 0 0 0 0 0 0 0 0 0 0 0 -0 0 0 0 0 -0 0 0 0 0 0 -0 -0 0 0 0 0 0
-0 -0 -0 0 0 0 0 0 0 0 -0 0 0 0 0 0 0 0 0 0 0 0 0 0 0 0 0 0 0 0 0 0 0 0 0 0 0 0 0 0 0 0 0 0 0 0 0 -0 -0 0 0 0 0 0
-0 0 0 0 0 0 0 0 0 0 -0 0 0 0 0 0 0 0 0 0 0 0 0 0 0 0 0 0 0 0 0 0 0 0 0 0 0 0 0 0 0 0 0 0 0 0 0 0 0 0 0 0 0 0
-0 0 -0 -0 -0 0 0 0 0 0 0 0 0 0 0 0 0 0 0 0 0 0 0 0 0 0 0 0 0 0 0 0 0 0 0 0 0 0 0 0 0 0 0 0 0 0 0 0 0 0 0 0 0 0
0 0 -0 -0 -0 0 0 0 0 0 0 0 0 0 0 0 0 -0 0 0 0 0 0 0 0 0 0 0 0 0 0 0 0 0 0 0 0 0 0 0 0 0 0 0 0 0 0 0 0 0 0 0 0 0
0 0 -0 -0 0 0 0 0 0 0 0 0 0 0 0 0 -0 0 -0 0 0 -0 0 0 0 0 0 0 0 0 0 0 0 0 0 0 0 0 0 0 0 0 0 0 0 0 0 0 0 0 0 0 0 0
0 0 -0 -0 0 0 0 0 -0 0 0 0 0 0 0 0 0 0 0 -0 -0 -0 0 0 0 0 0 0 0 0 0 0 0 0 0 0 0 0 0 0 0 0 0 0 0 0 0 0 0 0 0 0 0 0
0 0 0 0 0 0 0 0 0 0 0 0 0 0 0 0 0 0 0 0 -0 0 0 0 0 -0 0 0 0 0 0 0 0 0 0 0 0 0 0 0 0 0 0 0 0 0 -0 0 0 0 0 0 0 0
0 0 0 0 0 0 0 0 0 0 0 0 0 0 0 0 0 0 0 0 0 0 0 0 0 0 0 0 0 0 0 0 0 0 0 0 0 0 0 0 0 0 0 0 0 0 0 0 0 0 0 0 0 0
0 0 0 0 0 0 0 0 0 0 0 0 0 0 0 0 0 0 0 0 0 0 -0 -0 0 0 0 0 0 0 0 0 0 0 0 0 0 0 0 0 0 0 0 0 -0 -0 0 0 0 0 0 0 0 0
0 0 0 0 0 0 0 0 0 0 0 0 0 0 0 0 0 0 0 0 0 0 0 0 0 0 0 0 0 0 0 0 0 0 0 0 0 0 -0 -0 -0 -0 0 0 -0 -0 0 0 0 0 0 0 0 0
0 0 0 0 0 0 0 0 0 0 0 0 0 0 0 0 0 0 0 0 0 0 -0 0 0 0 0 0 0 0 0 0 0 0 0 0 0 -0 -0 -0 -0 -0 -0 -0 -0 0 0 0 0 0 0 0 0 0
0 0 0 0 0 0 0 0 0 0 0 0 0 0 0 0 0 0 0 0 0 0 0 0 0 0 0 0 0 0 0 0 0 0 0 0 0 0 0 -0 -0 -0 -0 -0 0 0 -0 0 0 0 0 0 0 0
0 0 0 0 0 0 0 0 0 0 0 0 0 0 0 0 0 0 0 0 0 0 0 0 0 0 0 0 0 0 0 0 0 0 0 0 0 0 0 -0 0 0 -0 -0 0 -0 -0 -0 0 0 0 0 0 0
0 0 0 -0 0 0 0 0 0 0 0 0 0 0 0 0 0 0 0 0 0 0 0 0 0 0 0 0 0 0 0 0 0 0 0 0 0 0 -0 -0 -0 -0 -0 0 0 0 -0 0 0 -0 -0 0 0 0
-0 -0 -0 -0 0 0 0 0 0 0 0 0 0 0 0 0 0 0 0 0 0 0 0 0 0 0 0 0 0 0 0 0 0 0 -0 0 0 0 0 0 -0 0 -0 0 0 0 -0 0 0 0 0 0 0 0
-0 -0 -0 -0 0 0 0 0 0 0 0 0 0 0 0 0 0 0 0 0 0 0 0 0 0 0 0 0 0 0 0 0 0 0 0 0 -0 0 0 -0 -0 -0 -0 0 0 0 0 0 0 0 0 0 0 -0
-0 -0 -0 -0 0 0 0 0 0 0 0 0 0 0 0 0 0 0 0 0 0 0 0 0 0 0 0 0 0 0 0 0 0 0 0 0 0 -0 -0 -0 -0 0 0 0 0 0 0 0 -0 0 0 0 0 0
-0 -0 -0 -0 -0 0 0 0 0 0 0 0 0 0 0 0 0 0 0 0 0 0 0 0 0 0 0 0 0 0 0 0 0 0 0 0 0 -0 0 0 0 0 0 0 0 0 -0 0 -0 0 0 0 0 0
-0 -0 -0 -0 -0 -0 -0 0 0 0 0 0 0 0 0 0 0 0 0 0 0 0 0 0 0 0 0 0 0 0 0 0 0 0 0 0 0 0 0 0 0 0 -0 -0 0 0 0 0 -0 -0 0 0 0 0
Wind_Speed_500mb
37 37 33 39 39 38 36 29 27 24 16 24 25 22 21 19 19 17 15 14 16 10 24 18 8 4 4 1 3 9 7 3 4 5 5 5 6 5 5 5 7 13 13 7 6 7 10 27 16 10 5 10 17 13
39 37 35 38 42 39 33 29 25 24 20 18 25 24 20 18 15 18 13 15 17 21 18 19 24 24 22 11 2 11 1 5 8 7 4 4 4 5 5 5 2 7 6 6 12 4 4 25 4 11 15 16 13 11
41 39 37 38 37 35 29 29 26 20 21 15 21 26 21 16 10 15 18 18 16 19 34 31 19 26 30 27 18 5 6 10 10 10 10 4 4 5 7 7 5 6 6 5 6 9 9 15 12 17 16 11 11 8
45 43 38 34 31 32 28 30 27 22 23 16 19 19 21 18 10 16 20 19 18 10 9 6 4 6 16 28 24 22 13 11 15 13 5 4 4 9 3 2 6 2 17 10 3 6 5 15 20 23 20 13 11 5
51 48 41 37 32 32 30 29 28 22 24 17 19 17 18 15 14 18 22 23 24 14 7 15 17 12 13 20 18 17 21 21 15 7 5 5 7 7 3 2 7 17 10 9 7 19 9 6 33 29 21 14 9 4
43 40 39 36 32 31 30 30 25 22 22 21 19 19 16 17 15 10 8 17 27 23 7 6 6 11 22 19 18 19 18 14 9 7 4 5 8 6 6 6 7 20 18 16 9 25 15 14 28 27 21 14 8 6
38 41 35 33 32 29 30 26 24 21 21 26 20 19 19 20 18 16 5 4 13 28 6 10 5 9 27 27 20 16 14 9 8 7 5 5 7 8 4 7 8 23 24 22 21 29 16 21 16 27 20 13 9 8
38 41 35 35 31 29 26 24 23 18 22 23 20 18 19 23 15 23 28 13 11 18 7 6 5 6 29 12 10 14 10 9 5 6 6 6 8 5 9 17 7 25 29 28 30 19 13 22 20 26 20 15 14 17
38 37 32 30 31 28 25 23 19 18 15 23 23 22 17 17 11 14 27 22 24 13 6 5 5 7 26 9 10 10 10 5 6 7 6 11 6 10 16 20 28 41 36 36 33 19 16 21 24 24 20 19 20 23
37 35 30 29 29 28 24 20 21 16 13 28 21 12 7 11 18 7 12 8 18 17 11 8 5 2 11 11 7 12 4 6 7 6 12 7 8 27 21 24 25 35 37 37 34 22 24 26 27 25 21 19 21 25
33 30 28 30 27 26 23 21 19 16 14 21 12 11 11 15 15 8 8 9 10 8 16 15 23 3 9 9 7 7 7 7 7 7 8 6 6 9 25 33 30 38 41 37 24 15 16 13 23 26 27 27 27 26
30 30 32 33 30 25 24 21 20 20 16 17 8 12 10 11 10 7 6 7 6 8 13 12 18 27 7 14 7 11 6 6 7 19 7 5 6 12 17 39 37 40 42 39 28 15 16 14 19 26 29 32 30 27
29 28 29 29 26 24 25 22 23 17 23 20 11 12 9 9 9 9 13 6 6 8 13 15 14 21 9 8 3 6 10 7 23 8 6 7 5 17 21 34 42 43 43 39 27 18 15 17 25 30 32 29 26 22
30 28 27 29 26 23 24 25 23 21 15 10 10 12 9 9 9 7 7 4 5 3 6 17 16 10 6 3 3 10 6 12 10 9 9 7 20 23 27 34 45 49 46 35 24 17 20 26 32 32 29 27 24 20
26 24 25 30 29 27 28 28 24 27 13 9 7 9 11 12 9 10 13 13 8 3 8 10 9 11 6 4 6 3 10 10 12 9 6 16 25 34 38 43 46 50 43 31 22 24 30 32 36 34 29 22 18 19
22 20 26 27 23 29 26 33 23 24 9 8 9 5 7 9 13 11 18 24 16 13 5 10 9 9 7 8 8 11 9 10 7 7 14 22 34 42 48 51 49 42 32 24 24 29 34 34 36 30 26 22 17 16
23 24 23 26 26 32 32 28 21 9 16 7 9 17 12 9 11 7 5 7 10 16 9 10 13 8 11 7 8 7 7 5 9 16 17 25 41 51 56 52 45 36 28 25 28 31 30 28 29 28 25 25 24 19
30 28 21 30 37 34 32 18 14 11 11 14 9 12 16 17 8 10 11 15 7 18 10 7 4 8 7 9 8 8 8 12 10 17 22 31 44 55 55 49 39 29 26 25 25 27 27 27 27 26 25 26 31 30
21 26 39 39 36 25 12 15 10 6 10 6 9 14 12 13 19 18 13 10 11 9 5 8 7 6 8 7 7 10 9 17 18 24 32 40 51 57 50 40 33 30 28 24 21 18 24 28 31 30 31 36 34 34
30 23 25 27 29 10 7 7 12 7 5 7 11 9 10 8 10 14 9 6 5 10 9 7 8 10 11 13 15 19 17 17 32 42 37 45 51 49 44 38 35 35 31 21 12 6 11 19 18 19 22 32 39 36
23 20 28 32 31 5 8 8 7 8 4 7 6 10 6 7 4 6 5 4 4 6 7 11 13 28 33 35 35 32 23 27 37 54 68 56 50 45 41 35 36 35 30 21 16 14 15 17 20 22 28 36 28 32
30 34 26 15 6 3 1 10 6 3 4 4 2 4 3 3 3 5 7 6 8 9 10 12 16 16 21 24 22 23 25 41 38 50 58 58 54 46 42 42 40 32 27 24 20 18 19 18 24 24 28 29 29 32
22 22 9 8 3 3 1 3 1 3 3 2 2 1 1 1 2 3 6 7 8 8 9 10 12 8 22 8 13 21 32 43 52 56 52 42 39 38 41 41 33 32 29 24 21 16 14 11 15 25 35 40 44 45
10 6 3 2 1 1 2 4 4 2 2 5 5 3 1 1 2 2 5 7 7 13 9 13 25 37 10 24 32 34 42 49 55 51 44 42 41 39 38 37 34 31 26 29 27 21 18 14 18 25 36 36 32 37
4 6 4 5 6 5 3 1 2 3 3 2 2 2 3 1 2 3 4 6 7 8 11 10 19 14 4 25 27 30 35 51 53 52 43 35 39 41 40 36 34 36 31 28 29 25 18 21 25 29 25 24 30 33
1 7 10 7 6 4 5 6 6 4 3 4 3 1 2 2 4 5 4 5 13 16 6 17 22 10 4 27 37 34 32 42 44 42 38 32 28 28 39 42 39 38 34 31 29 30 24 22 28 23 19 29 46 54
3 4 6 7 4 4 4 2 3 3 5 5 4 5 3 3 4 5 8 8 14 17 8 8 17 21 14 20 27 29 32 29 35 32 31 30 26 19 16 24 36 35 36 35 30 33 25 23 26 30 33 39 48 69
8 4 6 9 7 6 3 5 5 6 4 5 7 5 3 5 3 2 5 11 15 14 9 2 12 21 22 16 22 31 35 32 29 31 31 29 27 25 22 17 27 34 34 33 30 29 34 21 24 35 34 44 52 52
6 6 9 8 6 6 8 8 6 7 8 12 5 4 5 5 3 9 10 9 10 10 5 6 8 23 31 20 23 29 29 36 29 38 41 39 35 31 28 21 29 38 38 35 30 37 32 26 34 25 30 40 39 36
7 16 8 9 7 10 10 17 7 8 10 17 11 8 12 19 22 19 14 9 5 4 3 5 5 26 34 32 28 30 28 27 30 34 41 40 38 33 32 27 31 40 40 44 38 40 36 28 38 21 28 32 34 36
5 15 7 8 7 11 21 16 12 11 11 13 18 17 16 16 23 21 16 15 12 9 8 4 3 20 34 37 36 32 29 29 27 31 31 30 27 27 28 27 29 40 44 47 40 40 35 34 45 30 38 31 28 36
12 14 10 9 7 5 7 9 8 6 6 7 8 11 10 8 9 14 19 18 22 25 23 20 15 14 23 27 22 34 41 35 36 37 34 27 24 23 31 30 31 40 48 48 41 35 35 35 36 35 34 20 27 33
8 11 13 6 6 9 9 7 3 2 5 5 7 13 16 11 11 10 12 16 22 23 20 34 28 23 21 22 25 18 40 55 41 44 31 24 21 24 26 34 34 39 49 49 43 39 31 40 42 43 29 30 34 37
Wind_Direction_500mb
293 292 296 301 306 312 312 302 285 282 296 310 305 299 294 292 278 264 252 246 225 260 277 271 264 287 271 147 171 148 143 163 111 147 192 177 211 176 199 150 184 180 173 178 156 199 242 154 147 212 104 114 158 166
292 288 284 284 294 302 304 306 294 274 267 290 309 303 295 289 271 270 251 237 234 248 265 272 271 259 253 270 280 183 194 152 152 113 172 141 176 182 180 209 198 206 201 174 195 202 120 174 153 178 148 148 166 156
299 293 286 286 290 293 294 300 302 272 254 270 295 308 292 285 265 274 250 231 252 275 288 273 272 250 234 231 208 219 214 183 182 147 140 126 212 169 186 218 189 187 162 166 162 178 192 193 192 168 159 156 156 153
289 296 289 285 282 289 288 293 298 278 242 259 275 290 309 299 258 273 270 228 223 267 276 275 240 223 219 203 206 217 245 198 166 152 127 148 192 203 189 23 241 121 163 156 185 197 208 221 199 185 174 169 164 154
281 285 284 279 268 274 282 290 291 281 234 251 262 272 288 287 285 263 268 240 215 225 298 292 307 217 191 181 195 215 212 197 172 157 163 170 139 164 118 228 231 189 170 185 209 178 178 157 193 188 188 182 171 178
280 277 277 276 276 265 272 281 284 284 232 233 253 255 268 271 280 277 288 233 218 220 269 287 266 200 178 169 170 159 173 181 171 153 159 173 176 186 184 224 242 201 195 174 153 160 162 144 168 185 194 192 196 205
279 275 271 268 274 262 268 269 276 279 236 228 250 249 260 257 263 216 208 185 183 190 244 276 259 184 173 164 163 158 155 155 153 159 177 157 160 190 207 223 207 193 182 168 152 163 146 162 181 187 194 204 193 177
268 261 261 267 264 257 262 254 266 265 230 231 238 243 252 265 263 240 233 211 195 186 230 262 246 185 177 170 158 168 160 154 155 150 156 172 148 214 246 230 179 171 173 165 164 168 162 183 175 183 193 199 174 167
267 262 258 263 256 251 255 254 244 257 256 221 233 256 277 259 222 218 224 220 183 198 200 248 237 176 172 158 137 146 160 164 177 203 192 174 160 222 230 200 181 185 178 176 173 178 169 178 182 185 193 185 175 174
262 257 247 259 253 244 241 237 239 253 251 209 218 229 226 208 193 203 219 198 179 203 215 241 238 262 191 164 138 139 165 163 188 174 144 217 248 244 234 213 205 191 186 180 169 166 174 182 191 194 193 183 178 174
253 248 247 251 245 235 236 230 233 235 216 199 199 209 204 178 175 215 227 214 176 192 205 220 196 248 211 200 151 202 159 165 204 157 209 209 258 235 217 206 191 189 190 186 183 177 188 203 205 192 180 170 167 175
246 244 240 241 237 230 228 219 214 217 196 191 193 172 181 189 196 202 210 193 205 220 194 202 199 195 234 210 189 180 180 182 193 146 203 237 238 201 181 190 192 189 188 183 187 190 193 202 190 184 175 170 169 175
236 238 237 231 232 223 221 208 212 214 206 215 231 174 198 174 221 224 195 178 193 205 198 184 169 157 233 231 205 179 179 174 127 183 220 235 190 188 183 182 182 181 181 184 188 192 188 178 171 173 169 170 170 177
229 236 230 216 216 217 212 207 205 199 199 235 212 160 212 178 232 208 221 171 172 172 180 175 149 132 165 302 231 198 122 146 183 197 223 223 209 184 178 175 175 172 178 181 184 189 175 166 162 161 165 169 172 177
224 219 218 213 211 212 207 202 196 195 201 259 212 197 200 237 242 246 265 266 248 185 9 170 133 148 135 227 268 178 175 195 202 212 203 207 193 180 172 167 168 167 170 178 183 176 167 166 167 168 169 174 176 189
200 207 205 200 204 203 207 182 184 198 203 259 225 233 195 223 246 243 243 253 249 232 228 217 147 166 191 186 209 224 187 190 201 205 194 180 177 173 167 162 162 164 168 174 172 170 170 171 175 177 184 190 191 195
193 208 197 192 197 190 164 168 176 210 195 233 246 234 242 263 242 239 248 249 194 182 211 191 176 174 140 197 214 207 212 205 206 194 184 188 179 170 165 162 161 163 165 168 168 167 173 181 191 196 206 217 215 206
195 200 191 186 158 152 168 169 183 227 217 222 223 221 220 233 247 215 323 216 212 200 225 201 127 186 206 189 206 223 219 205 180 172 173 167 166 164 164 162 161 160 160 163 170 178 187 195 206 219 226 228 217 207
163 162 163 159 162 161 148 185 208 263 230 240 246 250 243 251 247 230 274 244 253 272 182 157 201 198 227 242 305 316 235 194 175 155 152 153 160 161 161 160 157 155 158 164 179 198 223 231 239 238 224 214 198 191
130 142 157 167 177 180 160 157 169 278 251 231 225 231 227 251 237 228 200 203 176 171 196 214 217 216 251 269 296 302 296 233 165 139 140 150 159 161 161 162 156 153 152 139 126 154 181 174 172 182 181 177 176 181
145 145 157 173 180 246 196 158 182 219 234 238 233 216 222 211 210 195 205 197 172 225 232 237 259 264 257 275 277 280 265 199 176 163 158 154 159 163 159 158 157 157 152 133 110 120 141 163 165 158 156 161 168 180
144 150 156 173 208 275 247 188 187 204 250 290 158 197 207 200 198 204 237 226 230 216 216 267 301 293 304 278 272 254 211 185 173 157 153 155 155 161 163 162 162 159 160 156 134 113 88 87 172 171 175 180 184 180
128 156 149 176 238 209 15 178 316 231 234 98 19 294 176 239 206 208 258 243 254 244 288 319 335 320 313 182 191 171 167 169 158 151 152 154 156 160 161 161 160 157 154 155 151 149 135 101 100 147 147 145 145 147
146 114 185 314 211 296 188 209 215 192 137 165 193 220 218 328 333 274 270 278 263 248 264 342 328 337 80 141 140 144 156 163 152 149 149 149 149 154 160 159 160 158 150 145 137 131 130 127 163 163 149 147 152 158
153 184 179 224 206 209 170 97 228 211 191 166 139 194 136 151 261 263 261 277 320 300 236 278 287 303 30 150 148 149 158 159 155 149 151 150 146 150 158 161 161 164 160 153 146 127 118 138 96 157 169 182 176 170
219 191 188 190 145 154 212 183 197 174 152 173 213 126 121 206 244 249 241 297 337 350 8 219 242 225 130 137 156 154 155 163 160 154 153 154 152 147 163 167 168 171 172 168 157 146 109 119 152 125 134 161 167 155
293 186 195 202 194 173 157 122 133 195 195 200 178 178 184 213 235 274 295 336 354 348 325 216 196 205 181 149 156 148 151 161 171 166 158 154 151 147 144 172 177 175 170 168 167 169 146 121 125 153 126 116 132 148
235 232 210 176 192 199 167 179 201 203 191 174 152 196 216 217 230 195 324 335 351 4 17 156 181 182 175 161 152 152 160 157 163 173 172 169 163 152 145 140 164 170 168 164 162 163 169 155 134 157 140 138 138 134
226 216 187 192 185 198 215 206 220 218 200 182 205 212 233 226 303 342 344 335 329 342 352 60 170 184 181 165 157 167 170 176 167 163 171 177 176 171 161 155 159 163 166 162 157 159 150 155 163 150 168 183 182 184
230 194 201 194 194 210 215 205 230 250 229 215 231 265 279 287 308 301 276 277 334 327 339 199 188 189 192 184 175 161 164 162 179 170 171 177 179 178 176 168 164 165 162 159 155 162 164 161 163 162 157 156 162 165
218 189 208 203 230 225 223 227 236 260 240 232 238 247 270 292 305 308 271 253 242 243 255 233 155 182 193 197 195 187 177 180 169 166 171 164 173 181 183 177 168 164 162 162 158 160 158 157 166 152 151 157 163 165
203 198 196 195 223 205 197 206 207 216 220 227 235 243 260 278 283 281 270 242 237 236 226 226 214 179 174 181 190 210 214 192 183 177 177 182 180 179 186 181 171 166 165 165 165 165 170 167 168 179 166 176 161 162
221 212 209 207 178 180 188 166 164 273 257 258 253 247 247 238 248 252 250 239 259 262 237 215 206 200 198 204 213 226 204 201 205 192 187 192 195 202 200 188 177 170 169 167 168 170 168 170 174 179 185 174 166 165
Wind_Speed_850mb
37 37 33 39 39 38 36 29 27 24 16 24 25 22 21 19 19 17 15 14 16 10 24 18 8 4 4 1 3 9 7 3 4 5 5 5 6 5 5 5 7 13 13 7 6 7 10 27 16 10 5 10 17 13
39 37 35 38 42 39 33 29 25 24 20 18 25 24 20 18 15 18 13 15 17 21 18 19 24 24 22 11 2 11 1 5 8 7 4 4 4 5 5 5 2 7 6 6 12 4 4 25 4 11 15 16 13 11
41 39 37 38 37 35 29 29 26 20 21 15 21 26 21 16 10 15 18 18 16 19 34 31 19 26 30 27 18 5 6 10 10 10 10 4 4 5 7 7 5 6 6 5 6 9 9 15 12 17 16 11 11 8
45 43 38 34 31 32 28 30 27 22 23 16 19 19 21 18 10 16 20 19 18 10 9 6 4 6 16 28 24 22 13 11 15 13 5 4 4 9 3 2 6 2 17 10 3 6 5 15 20 23 20 13 11 5
51 48 41 37 32 32 30 29 28 22 24 17 19 17 18 15 14 18 22 23 24 14 7 15 17 12 13 20 18 17 21 21 15 7 5 5 7 7 3 2 7 17 10 9 7 19 9 6 33 29 21 14 9 4
43 40 39 36 32 31 30 30 25 22 22 21 19 19 16 17 15 10 8 17 27 23 7 6 6 11 22 19 18 19 18 14 9 7 4 5 8 6 6 6 7 20 18 16 9 25 15 14 28 27 21 14 8 6
38 41 35 33 32 29 30 26 24 21 21 26 20 19 19 20 18 16 5 4 13 28 6 10 5 9 27 27 20 16 14 9 8 7 5 5 7 8 4 7 8 23 24 22 21 29 16 21 16 27 20 13 9 8
38 41 35 35 31 29 26 24 23 18 22 23 20 18 19 23 15 23 28 13 11 18 7 6 5 6 29 12 10 14 10 9 5 6 6 6 8 5 9 17 7 25 29 28 30 19 13 22 20 26 20 15 14 17
38 37 32 30 31 28 25 23 19 18 15 23 23 22 17 17 11 14 27 22 24 13 6 5 5 7 26 9 10 10 10 5 6 7 6 11 6 10 16 20 28 41 36 36 33 19 16 21 24 24 20 19 20 23
37 35 30 29 29 28 24 20 21 16 13 28 21 12 7 11 18 7 12 8 18 17 11 8 5 2 11 11 7 12 4 6 7 6 12 7 8 27 21 24 25 35 37 37 34 22 24 26 27 25 21 19 21 25
33 30 28 30 27 26 23 21 19 16 14 21 12 11 11 15 15 8 8 9 10 8 16 15 23 3 9 9 7 7 7 7 7 7 8 6 6 9 25 33 30 38 41 37 24 15 16 13 23 26 27 27 27 26
30 30 32 33 30 25 24 21 20 20 16 17 8 12 10 11 10 7 6 7 6 8 13 12 18 27 7 14 7 11 6 6 7 19 7 5 6 12 17 39 37 40 42 39 28 15 16 14 19 26 29 32 30 27
29 28 29 29 26 24 25 22 23 17 23 20 11 12 9 9 9 9 13 6 6 8 13 15 14 21 9 8 3 6 10 7 23 8 6 7 5 17 21 34 42 43 43 39 27 18 15 17 25 30 32 29 26 22
30 28 27 29 26 23 24 25 23 21 15 10 10 12 9 9 9 7 7 4 5 3 6 17 16 10 6 3 3 10 6 12 10 9 9 7 20 23 27 34 45 49 46 35 24 17 20 26 32 32 29 27 24 20
26 24 25 30 29 27 28 28 24 27 13 9 7 9 11 12 9 10 13 13 8 3 8 10 9 11 6 4 6 3 10 10 12 9 6 16 25 34 38 43 46 50 43 31 22 24 30 32 36 34 29 22 18 19
22 20 26 27 23 29 26 33 23 24 9 8 9 5 7 9 13 11 18 24 16 13 5 10 9 9 7 8 8 11 9 10 7 7 14 22 34 42 48 51 49 42 32 24 24 29 34 34 36 30 26 22 17 16
23 24 23 26 26 32 32 28 21 9 16 7 9 17 12 9 11 7 5 7 10 16 9 10 13 8 11 7 8 7 7 5 9 16 17 25 41 51 56 52 45 36 28 25 28 31 30 28 29 28 25 25 24 19
30 28 21 30 37 34 32 18 14 11 11 14 9 12 16 17 8 10 11 15 7 18 10 7 4 8 7 9 8 8 8 12 10 17 22 31 44 55 55 49 39 29 26 25 25 27 27 27 27 26 25 26 31 30
21 26 39 39 36 25 12 15 10 6 10 6 9 14 12 13 19 18 13 10 11 9 5 8 7 6 8 7 7 10 9 17 18 24 32 40 51 57 50 40 33 30 28 24 21 18 24 28 31 30 31 36 34 34
30 23 25 27 29 10 7 7 12 7 5 7 11 9 10 8 10 14 9 6 5 10 9 7 8 10 11 13 15 19 17 17 32 42 37 45 51 49 44 38 35 35 31 21 12 6 11 19 18 19 22 32 39 36
23 20 28 32 31 5 8 8 7 8 4 7 6 10 6 7 4 6 5 4 4 6 7 11 13 28 33 35 35 32 23 27 37 54 68 56 50 45 41 35 36 35 30 21 16 14 15 17 20 22 28 36 28 32
30 34 26 15 6 3 1 10 6 3 4 4 2 4 3 3 3 5 7 6 8 9 10 12 16 16 21 24 22 23 25 41 38 50 58 58 54 46 42 42 40 32 27 24 20 18 19 18 24 24 28 29 29 32
22 22 9 8 3 3 1 3 1 3 3 2 2 1 1 1 2 3 6 7 8 8 9 10 12 8 22 8 13 21 32 43 52 56 52 42 39 38 41 41 33 32 29 24 21 16 14 11 15 25 35 40 44 45
10 6 3 2 1 1 2 4 4 2 2 5 5 3 1 1 2 2 5 7 7 13 9 13 25 37 10 24 32 34 42 49 55 51 44 42 41 39 38 37 34 31 26 29 27 21 18 14 18 25 36 36 32 37
4 6 4 5 6 5 3 1 2 3 3 2 2 2 3 1 2 3 4 6 7 8 11 10 19 14 4 25 27 30 35 51 53 52 43 35 39 41 40 36 34 36 31 28 29 25 18 21 25 29 25 24 30 33
1 7 10 7 6 4 5 6 6 4 3 4 3 1 2 2 4 5 4 5 13 16 6 17 22 10 4 27 37 34 32 42 44 42 38 32 28 28 39 42 39 38 34 31 29 30 24 22 28 23 19 29 46 54
3 4 6 7 4 4 4 2 3 3 5 5 4 5 3 3 4 5 8 8 14 17 8 8 17 21 14 20 27 29 32 29 35 32 31 30 26 19 16 24 36 35 36 35 30 33 25 23 26 30 33 39 48 69
8 4 6 9 7 6 3 5 5 6 4 5 7 5 3 5 3 2 5 11 15 14 9 2 12 21 22 16 22 31 35 32 29 31 31 29 27 25 22 17 27 34 34 33 30 29 34 21 24 35 34 44 52 52
6 6 9 8 6 6 8 8 6 7 8 12 5 4 5 5 3 9 10 9 10 10 5 6 8 23 31 20 23 29 29 36 29 38 41 39 35 31 28 21 29 38 38 35 30 37 32 26 34 25 30 40 39 36
7 16 8 9 7 10 10 17 7 8 10 17 11 8 12 19 22 19 14 9 5 4 3 5 5 26 34 32 28 30 28 27 30 34 41 40 38 33 32 27 31 40 40 44 38 40 36 28 38 21 28 32 34 36
5 15 7 8 7 11 21 16 12 11 11 13 18 17 16 16 23 21 16 15 12 9 8 4 3 20 34 37 36 32 29 29 27 31 31 30 27 27 28 27 29 40 44 47 40 40 35 34 45 30 38 31 28 36
12 14 10 9 7 5 7 9 8 6 6 7 8 11 10 8 9 14 19 18 22 25 23 20 15 14 23 27 22 34 41 35 36 37 34 27 24 23 31 30 31 40 48 48 41 35 35 35 36 35 34 20 27 33
8 11 13 6 6 9 9 7 3 2 5 5 7 13 16 11 11 10 12 16 22 23 20 34 28 23 21 22 25 18 40 55 41 44 31 24 21 24 26 34 34 39 49 49 43 39 31 40 42 43 29 30 34 37
Wind_Direction_850mb
293 292 296 301 306 312 312 302 285 282 296 310 305 299 294 292 278 264 252 246 225 260 277 271 264 287 271 147 171 148 143 163 111 147 192 177 211 176 199 150 184 180 173 178 156 199 242 154 147 212 104 114 158 166
292 288 284 284 294 302 304 306 294 274 267 290 309 303 295 289 271 270 251 237 234 248 265 272 271 259 253 270 280 183 194 152 152 113 172 141 176 182 180 209 198 206 201 174 195 202 120 174 153 178 148 148 166 156
299 293 286 286 290 293 294 300 302 272 254 270 295 308 292 285 265 274 250 231 252 275 288 273 272 250 234 231 208 219 214 183 182 147 140 126 212 169 186 218 189 187 162 166 162 178 192 193 192 168 159 156 156 153
289 296 289 285 282 289 288 293 298 278 242 259 275 290 309 299 258 273 270 228 223 267 276 275 240 223 219 203 206 217 245 198 166 152 127 148 192 203 189 23 241 121 163 156 185 197 208 221 199 185 174 169 164 154
281 285 284 279 268 274 282 290 291 281 234 251 262 272 288 287 285 263 268 240 215 225 298 292 307 217 191 181 195 215 212 197 172 157 163 170 139 164 118 228 231 189 170 185 209 178 178 157 193 188 188 182 171 178
280 277 277 276 276 265 272 281 284 284 232 233 253 255 268 271 280 277 288 233 218 220 269 287 266 200 178 169 170 159 173 181 171 153 159 173 176 186 184 224 242 201 195 174 153 160 162 144 168 185 194 192 196 205
279 275 271 268 274 262 268 269 276 279 236 228 250 249 260 257 263 216 208 185 183 190 244 276 259 184 173 164 163 158 155 155 153 159 177 157 160 190 207 223 207 193 182 168 152 163 146 162 181 187 194 204 193 177
268 261 261 267 264 257 262 254 266 265 230 231 238 243 252 265 263 240 233 211 195 186 230 262 246 185 177 170 158 168 160 154 155 150 156 172 148 214 246 230 179 171 173 165 164 168 162 183 175 183 193 199 174 167
267 262 258 263 256 251 255 254 244 257 256 221 233 256 277 259 222 218 224 220 183 198 200 248 237 176 172 158 137 146 160 164 177 203 192 174 160 222 230 200 181 185 178 176 173 178 169 178 182 185 193 185 175 174
262 257 247 259 253 244 241 237 239 253 251 209 218 229 226 208 193 203 219 198 179 203 215 241 238 262 191 164 138 139 165 163 188 174 144 217 248 244 234 213 205 191 186 180 169 166 174 182 191 194 193 183 178 174
253 248 247 251 245 235 236 230 233 235 216 199 199 209 204 178 175 215 227 214 176 192 205 220 196 248 211 200 151 202 159 165 204 157 209 209 258 235 217 206 191 189 190 186 183 177 188 203 205 192 180 170 167 175
246 244 240 241 237 230 228 219 214 217 196 191 193 172 181 189 196 202 210 193 205 220 194 202 199 195 234 210 189 180 180 182 193 146 203 237 238 201 181 190 192 189 188 183 187 190 193 202 190 184 175 170 169 175
236 238 237 231 232 223 221 208 212 214 206 215 231 174 198 174 221 224 195 178 193 205 198 184 169 157 233 231 205 179 179 174 127 183 220 235 190 188 183 182 182 181 181 184 188 192 188 178 171 173 169 170 170 177
229 236 230 216 216 217 212 207 205 199 199 235 212 160 212 178 232 208 221 171 172 172 180 175 149 132 165 302 231 198 122 146 183 197 223 223 209 184 178 175 175 172 178 181 184 189 175 166 162 161 165 169 172 177
224 219 218 213 211 212 207 202 196 195 201 259 212 197 200 237 242 246 265 266 248 185 9 170 133 148 135 227 268 178 175 195 202 212 203 207 193 180 172 167 168 167 170 178 183 176 167 166 167 168 169 174 176 189
200 207 205 200 204 203 207 182 184 198 203 259 225 233 195 223 246 243 243 253 249 232 228 217 147 166 191 186 209 224 187 190 201 205 194 180 177 173 167 162 162 164 168 174 172 170 170 171 175 177 184 190 191 195
193 208 197 192 197 190 164 168 176 210 195 233 246 234 242 263 242 239 248 249 194 182 211 191 176 174 140 197 214 207 212 205 206 194 184 188 179 170 165 162 161 163 165 168 168 167 173 181 191 196 206 217 215 206
195 200 191 186 158 152 168 169 183 227 217 222 223 221 220 233 247 215 323 216 212 200 225 201 127 186 206 189 206 223 219 205 180 172 173 167 166 164 164 162 161 160 160 163 170 178 187 195 206 219 226 228 217 207
163 162 163 159 162 161 148 185 208 263 230 240 246 250 243 251 247 230 274 244 253 272 182 157 201 198 227 242 305 316 235 194 175 155 152 153 160 161 161 160 157 155 158 164 179 198 223 231 239 238 224 214 198 191
130 142 157 167 177 180 160 157 169 278 251 231 225 231 227 251 237 228 200 203 176 171 196 214 217 216 251 269 296 302 296 233 165 139 140 150 159 161 161 162 156 153 152 139 126 154 181 174 172 182 181 177 176 181
145 145 157 173 180 246 196 158 182 219 234 238 233 216 222 211 210 195 205 197 172 225 232 237 259 264 257 275 277 280 265 199 176 163 158 154 159 163 159 158 157 157 152 133 110 120 141 163 165 158 156 161 168 180
144 150 156 173 208 275 247 188 187 204 250 290 158 197 207 200 198 204 237 226 230 216 216 267 301 293 304 278 272 254 211 185 173 157 153 155 155 161 163 162 162 159 160 156 134 113 88 87 172 171 175 180 184 180
128 156 149 176 238 209 15 178 316 231 234 98 19 294 176 239 206 208 258 243 254 244 288 319 335 320 313 182 191 171 167 169 158 151 152 154 156 160 161 161 160 157 154 155 151 149 135 101 100 147 147 145 145 147
146 114 185 314 211 296 188 209 215 192 137 165 193 220 218 328 333 274 270 278 263 248 264 342 328 337 80 141 140 144 156 163 152 149 149 149 149 154 160 159 160 158 150 145 137 131 130 127 163 163 149 147 152 158
153 184 179 224 206 209 170 97 228 211 191 166 139 194 136 151 261 263 261 277 320 300 236 278 287 303 30 150 148 149 158 159 155 149 151 150 146 150 158 161 161 164 160 153 146 127 118 138 96 157 169 182 176 170
219 191 188 190 145 154 212 183 197 174 152 173 213 126 121 206 244 249 241 297 337 350 8 219 242 225 130 137 156 154 155 163 160 154 153 154 152 147 163 167 168 171 172 168 157 146 109 119 152 125 134 161 167 155
293 186 195 202 194 173 157 122 133 195 195 200 178 178 184 213 235 274 295 336 354 348 325 216 196 205 181 149 156 148 151 161 171 166 158 154 151 147 144 172 177 175 170 168 167 169 146 121 125 153 126 116 132 148
235 232 210 176 192 199 167 179 201 203 191 174 152 196 216 217 230 195 324 335 351 4 17 156 181 182 175 161 152 152 160 157 163 173 172 169 163 152 145 140 164 170 168 164 162 163 169 155 134 157 140 138 138 134
226 216 187 192 185 198 215 206 220 218 200 182 205 212 233 226 303 342 344 335 329 342 352 60 170 184 181 165 157 167 170 176 167 163 171 177 176 171 161 155 159 163 166 162 157 159 150 155 163 150 168 183 182 184
230 194 201 194 194 210 215 205 230 250 229 215 231 265 279 287 308 301 276 277 334 327 339 199 188 189 192 184 175 161 164 162 179 170 171 177 179 178 176 168 164 165 162 159 155 162 164 161 163 162 157 156 162 165
218 189 208 203 230 225 223 227 236 260 240 232 238 247 270 292 305 308 271 253 242 243 255 233 155 182 193 197 195 187 177 180 169 166 171 164 173 181 183 177 168 164 162 162 158 160 158 157 166 152 151 157 163 165
203 198 196 195 223 205 197 206 207 216 220 227 235 243 260 278 283 281 270 242 237 236 226 226 214 179 174 181 190 210 214 192 183 177 177 182 180 179 186 181 171 166 165 165 165 165 170 167 168 179 166 176 161 162
221 212 209 207 178 180 188 166 164 273 257 258 253 247 247 238 248 252 250 239 259 262 237 215 206 200 198 204 213 226 204 201 205 192 187 192 195 202 200 188 177 170 169 167 168 170 168 170 174 179 185 174 166 165